Time,TemperatureF,DewpointF,PressureIn,WindDirection,WindDirectionDegrees,WindSpeedMPH,WindSpeedGustMPH,Humidity,HourlyPrecipIn,Conditions,Clouds,dailyrainin,SoftwareType,DateUTC
2013-07-15 00:33:00,78.0,-99.9,30.27,North,-999,-999.0,-999.0,-999,0.00,,,-99.99,,2013-07-15 04:33:00,
2013-07-15 00:42:00,78.0,-99.9,30.27,North,-999,-999.0,-999.0,-999,0.00,,,-99.99,,2013-07-15 04:42:00,
2013-07-15 00:53:00,77.0,-99.9,30.26,North,-999,-999.0,-999.0,-999,0.00,,,-99.99,,2013-07-15 04:53:00,
2013-07-15 01:32:00,77.0,-99.9,30.26,North,-999,-999.0,-999.0,-999,0.00,,,-99.99,,2013-07-15 05:32:00,
2013-07-15 01:43:00,77.0,-99.9,30.26,North,-999,-999.0,-999.0,-999,0.00,,,-99.99,,2013-07-15 05:43:00,
2013-07-15 01:53:00,77.0,-99.9,30.25,North,-999,-999.0,-999.0,-999,0.00,,,-99.99,,2013-07-15 05:53:00,
2013-07-15 02:32:00,77.0,-99.9,30.25,North,-999,-999.0,-999.0,-999,0.00,,,-99.99,,2013-07-15 06:32:00,
2013-07-15 02:42:00,77.0,-99.9,30.25,North,-999,-999.0,-999.0,-999,0.00,,,-99.99,,2013-07-15 06:42:00,
2013-07-15 02:53:00,76.0,-99.9,30.25,North,-999,-999.0,-999.0,-999,0.00,,,-99.99,,2013-07-15 06:53:00,
2013-07-15 03:33:00,76.0,-99.9,30.25,North,-999,-999.0,-999.0,-999,0.00,,,-99.99,,2013-07-15 07:33:00,
2013-07-15 03:44:00,76.0,-99.9,30.25,North,-999,-999.0,-999.0,-999,0.00,,,-99.99,,2013-07-15 07:44:00,
2013-07-15 03:53:00,76.0,-99.9,30.25,North,-999,-999.0,-999.0,-999,0.00,,,-99.99,,2013-07-15 07:53:00,
2013-07-15 04:32:00,76.0,-99.9,30.25,North,-999,-999.0,-999.0,-999,0.00,,,-99.99,,2013-07-15 08:32:00,
2013-07-15 04:44:00,76.0,-99.9,30.25,North,-999,-999.0,-999.0,-999,0.00,,,-99.99,,2013-07-15 08:44:00,
2013-07-15 04:53:00,76.0,-99.9,30.25,North,-999,-999.0,-999.0,-999,0.00,,,-99.99,,2013-07-15 08:53:00,
2013-07-15 05:32:00,76.0,-99.9,30.25,North,-999,-999.0,-999.0,-999,0.00,,,-99.99,,2013-07-15 09:32:00,
2013-07-15 05:43:00,76.0,-99.9,30.25,North,-999,-999.0,-999.0,-999,0.00,,,-99.99,,2013-07-15 09:43:00,
2013-07-15 05:53:00,75.0,-99.9,30.26,North,-999,-999.0,-999.0,-999,0.00,,,-99.99,,2013-07-15 09:53:00,
2013-07-15 06:32:00,75.0,-99.9,30.26,North,-999,-999.0,-999.0,-999,0.00,,,-99.99,,2013-07-15 10:32:00,
2013-07-15 06:43:00,75.0,-99.9,30.26,North,-999,-999.0,-999.0,-999,0.00,,,-99.99,,2013-07-15 10:43:00,
2013-07-15 07:32:00,78.0,-99.9,30.27,North,-999,-999.0,-999.0,-999,0.00,,,-99.99,,2013-07-15 11:32:00,
2013-07-15 07:42:00,78.0,-99.9,30.27,North,-999,-999.0,-999.0,-999,0.00,,,-99.99,,2013-07-15 11:42:00,
2013-07-15 07:52:00,78.0,-99.9,30.27,North,-999,-999.0,-999.0,-999,0.00,,,-99.99,,2013-07-15 11:52:00,
2013-07-15 07:53:00,82.0,-99.9,30.27,North,-999,-999.0,-999.0,-999,0.00,,,-99.99,,2013-07-15 11:53:00,
2013-07-15 08:33:00,82.0,-99.9,30.27,North,-999,-999.0,-999.0,-999,0.00,,,-99.99,,2013-07-15 12:33:00,
2013-07-15 08:42:00,82.0,-99.9,30.27,North,-999,-999.0,-999.0,-999,0.00,,,-99.99,,2013-07-15 12:42:00,
2013-07-15 08:53:00,85.0,-99.9,30.26,North,-999,-999.0,-999.0,-999,0.00,,,-99.99,,2013-07-15 12:53:00,
2013-07-15 09:33:00,85.0,-99.9,30.26,North,-999,-999.0,-999.0,-999,0.00,,,-99.99,,2013-07-15 13:33:00,
2013-07-15 09:43:00,85.0,-99.9,30.26,North,-999,-999.0,-999.0,-999,0.00,,,-99.99,,2013-07-15 13:43:00,
2013-07-15 10:33:00,87.0,-99.9,30.25,North,-999,-999.0,-999.0,-999,0.00,,,-99.99,,2013-07-15 14:33:00,
2013-07-15 10:43:00,87.0,-99.9,30.25,North,-999,-999.0,-999.0,-999,0.00,,,-99.99,,2013-07-15 14:43:00,
2013-07-15 10:53:00,89.0,-99.9,30.24,North,-999,-999.0,-999.0,-999,0.00,,,-99.99,,2013-07-15 14:53:00,
2013-07-15 11:50:00,89.0,-99.9,30.24,North,-999,-999.0,-999.0,-999,0.00,,,-99.99,,2013-07-15 15:50:00,
2013-07-15 11:53:00,91.0,-99.9,30.23,North,-999,-999.0,-999.0,-999,0.00,,,-99.99,,2013-07-15 15:53:00,
2013-07-15 12:50:00,91.0,-99.9,30.23,North,-999,-999.0,-999.0,-999,0.00,,,-99.99,,2013-07-15 16:50:00,
2013-07-15 12:53:00,92.0,-99.9,30.21,North,-999,-999.0,-999.0,-999,0.00,,,-99.99,,2013-07-15 16:53:00,
2013-07-15 13:51:00,92.0,-99.9,30.21,North,-999,-999.0,-999.0,-999,0.00,,,-99.99,,2013-07-15 17:51:00,
2013-07-15 13:53:00,91.0,-99.9,30.19,North,-999,-999.0,-999.0,-999,0.00,,,-99.99,,2013-07-15 17:53:00,
2013-07-15 14:40:00,91.0,-99.9,30.19,North,-999,-999.0,-999.0,-999,0.00,,,-99.99,,2013-07-15 18:40:00,
2013-07-15 14:53:00,91.0,-99.9,30.17,North,-999,-999.0,-999.0,-999,0.00,,,-99.99,,2013-07-15 18:53:00,
2013-07-15 15:39:00,91.0,-99.9,30.17,North,-999,-999.0,-999.0,-999,0.00,,,-99.99,,2013-07-15 19:39:00,
2013-07-15 15:53:00,92.0,-99.9,30.16,North,-999,-999.0,-999.0,-999,0.00,,,-99.99,,2013-07-15 19:53:00,
2013-07-15 16:43:00,92.0,-99.9,30.16,North,-999,-999.0,-999.0,-999,0.00,,,-99.99,,2013-07-15 20:43:00,
2013-07-15 16:53:00,85.0,-99.9,30.14,North,-999,-999.0,-999.0,-999,0.00,,,-99.99,,2013-07-15 20:53:00,
2013-07-15 17:53:00,93.0,-99.9,30.13,North,-999,-999.0,-999.0,-999,0.00,,,-99.99,,2013-07-15 21:53:00,
2013-07-15 18:36:00,93.0,-99.9,30.13,North,-999,-999.0,-999.0,-999,0.00,,,-99.99,,2013-07-15 22:36:00,
2013-07-15 18:44:00,93.0,-99.9,30.13,North,-999,-999.0,-999.0,-999,0.00,,,-99.99,,2013-07-15 22:44:00,
2013-07-15 18:53:00,92.0,-99.9,30.13,North,-999,-999.0,-999.0,-999,0.00,,,-99.99,,2013-07-15 22:53:00,
2013-07-15 19:40:00,92.0,-99.9,30.13,North,-999,-999.0,-999.0,-999,0.00,,,-99.99,,2013-07-15 23:40:00,
2013-07-15 19:50:00,92.0,-99.9,30.13,North,-999,-999.0,-999.0,-999,0.00,,,-99.99,,2013-07-15 23:50:00,
2013-07-15 19:53:00,83.0,-99.9,30.12,North,-999,-999.0,-999.0,-999,0.00,,,-99.99,,2013-07-15 23:53:00,
2013-07-15 20:34:00,83.0,-99.9,30.12,North,-999,-999.0,-999.0,-999,0.00,,,-99.99,,2013-07-16 00:34:00,
2013-07-15 20:51:00,83.0,-99.9,30.12,North,-999,-999.0,-999.0,-999,0.00,,,-99.99,,2013-07-16 00:51:00,
2013-07-15 20:53:00,83.0,-99.9,30.12,North,-999,-999.0,-999.0,-999,0.00,,,-99.99,,2013-07-16 00:53:00,
2013-07-15 21:49:00,83.0,-99.9,30.12,North,-999,-999.0,-999.0,-999,0.00,,,-99.99,,2013-07-16 01:49:00,
2013-07-15 21:53:00,81.0,-99.9,30.13,North,-999,-999.0,-999.0,-999,0.00,,,-99.99,,2013-07-16 01:53:00,
2013-07-15 22:35:00,81.0,-99.9,30.13,North,-999,-999.0,-999.0,-999,0.00,,,-99.99,,2013-07-16 02:35:00,
2013-07-15 22:53:00,81.0,-99.9,30.13,North,-999,-999.0,-999.0,-999,0.00,,,-99.99,,2013-07-16 02:53:00,
2013-07-15 23:49:00,81.0,-99.9,30.13,North,-999,-999.0,-999.0,-999,0.00,,,-99.99,,2013-07-16 03:49:00,
2013-07-15 23:53:00,80.0,-99.9,30.14,North,-999,-999.0,-999.0,-999,0.00,,,-99.99,,2013-07-16 03:53:00,